Location: Red Bud (historical)
(37.7759°N, 88.4053°W)
Time: 00:17:55
(UTC+00:00)

ATLAS 2AS CENTAUR R/B - Pass Details

Date: 29 October 2020
Orbit: 939 x 1273 km, 63.7° (Epoch: 23 November)

Event Time Altitude Azimuth Distance (km) Brightness Sun altitude
Rises 23:36:31 0° 332° (NNW) 4,163 6.0 -8.3°
Reaches altitude 10° 23:40:59 10° 355° (N) 3,136 5.1 -9.2°
Maximum altitude 23:44:59 15° 28° (NNE) 2,714 4.5 -9.9°
Enters shadow 23:48:38 11° 59° (ENE) 2,971 4.4 -10.6°
